Regional Weather Roundup
Issued by NWS Upton, NY

Current Version | Previous Version | Text Only | Print | Product List | Glossary Off
Versions: 1 2 3 4 5 6 7 8 9 10 11 12 13 14 15 16 17 18 19 20 21 22 23 24 25 26 27 28

000
ASUS41 KOKX 240108
RWROKX

REGIONAL WEATHER ROUNDUP
NATIONAL WEATHER SERVICE NEW YORK NY
900 PM EDT TUE MAY 23 2017

NOTE: "FAIR" INDICATES FEW OR NO CLOUDS BELOW 12,000 FEET WITH NO
SIGNIFICANT WEATHER AND/OR OBSTRUCTIONS TO VISIBILITY.

NYZ071-072-176-178-NJZ106-104-240200-
NEW YORK CITY METRO AREA

CITY           SKY/WX    TMP DP  RH WIND       PRES   REMARKS
Central Park   CLOUDY    64  48  56 CALM      29.85F
Wall St Helipt CLOUDY    64  50  59 CALM      29.84S
Bronx Bot Gard   N/A     63  46  55 E2        29.86R
LaGuardia APRT CLOUDY    66  49  54 S7        29.82F
Kennedy INTL   CLOUDY    60  52  74 S7        29.84F
Breezy Point     N/A     57 N/A N/A S6          N/A
Newark/Liberty CLOUDY    65  50  58 S5        29.82F
Teterboro      MOCLDY    65  50  58 CALM      29.82S
$$

NYZ177-179-078>081-240200-
LONG ISLAND NEW YORK

CITY           SKY/WX    TMP DP  RH WIND       PRES   REMARKS
Jones Beach      N/A     57 N/A N/A S1          N/A
Matinecock PT    N/A     64 N/A N/A CALM        N/A
Farmingdale    CLOUDY    61  49  64 S3        29.83F
MacArthur/ISP  CLOUDY    60  50  69 SW3       29.83F
Shirley        PTCLDY    60  52  74 SW3       29.85S
Mt Sinai Harb    N/A    N/A N/A N/A S3          N/A
Westhampton    PTCLDY    57  50  77 CALM      29.86S
East Hampton     N/A     58  50  73 S3        29.83F
Montauk          N/A     59  54  83 SW5       29.86
$$

NYZ052-065-067-240200-
HUDSON VALLEY

CITY           SKY/WX    TMP DP  RH WIND       PRES   REMARKS
White Plains   CLOUDY    61  53  75 CALM      29.82F
Larchmont Harb   N/A     63 N/A N/A SW2         N/A
Croton O-T Hud   N/A     63 N/A N/A MISG        N/A
Newburgh       MOCLDY    59  52  77 CALM      29.84F
Montgomery     CLOUDY    58  54  86 CALM      29.82F
Poughkeepsie   CLOUDY    58  52  80 CALM      29.82S
Albany         CLOUDY    62  49  62 S6        29.81F
$$

NJZ001-105-106-008-010-013-015-019>022-104-240200-
NEW JERSEY

CITY           SKY/WX    TMP DP  RH WIND       PRES   REMARKS
Newark/Liberty CLOUDY    65  50  58 S5        29.82F
Teterboro      MOCLDY    65  50  58 CALM      29.82S
Caldwell       CLOUDY    64  52  64 CALM      29.83F
Somerville     MOCLDY    59  56  89 CALM      29.81S
Linden           N/A     64  50  60 CALM      29.83S
Perth Amboy      N/A     63 N/A N/A S2          N/A
Sussex         CLOUDY    57  52  83 CALM      29.84F
Andover          N/A     58  53  84 CALM      29.83F
Trenton        CLOUDY    61  55  81 SE3       29.83S
Millville      CLOUDY    60  54  80 E5        29.83S
Atlantic City  CLOUDY    59  50  72 E5        29.84R
Wrightstown    CLOUDY    60  50  70 SE5       29.82S
Toms River     CLOUDY    59  52  77 CALM      29.85S
Belmar         MOCLDY    59  49  69 CALM      29.85S
$$

PAZ047>061-062-071-240200-
EASTERN PENNSYLVANIA

CITY           SKY/WX    TMP DP  RH WIND       PRES   REMARKS
Philadelphia   CLOUDY    63  52  67 E6        29.83F
Allentown      CLOUDY    60  52  74 CALM      29.83S
Scranton       CLOUDY    61  46  57 SE5       29.82S
$$

CTZ002-004>006-009-010-012-RIZ004-006-007-MAZ004-011-015-240200-
SOUTHERN NEW ENGLAND
 IN CT

CITY           SKY/WX    TMP DP  RH WIND       PRES   REMARKS
Bradley INTL   CLOUDY    63  50  62 CALM      29.82S
Hartford       CLOUDY    61  55  81 CALM      29.82S
Danbury        CLOUDY    59  53  80 CALM      29.84S
Wtrbury/Oxford NOT AVBL
Bridgeport     CLOUDY    63  52  67 CALM      29.83S
Meriden        MOCLDY    60  55  83 CALM      29.83S
New Haven      CLOUDY    59  50  72 CALM      29.83S
Chester          N/A     61  52  72 CALM      29.84S
Groton         CLOUDY    57  52  83 S3        29.83S
Wilimantic     CLOUDY    63  56  78 CALM      29.84R

 IN RI

CITY           SKY/WX    TMP DP  RH WIND       PRES   REMARKS
Providence     CLOUDY    62  56  80 S8        29.84R
Block Island   CLOUDY    57  52  83 SW10      29.85R
Westerly       CLOUDY    59  53  80 S5        29.85R
 IN MA

CITY           SKY/WX    TMP DP  RH WIND       PRES   REMARKS
Boston         MOCLDY    59  52  77 CALM      29.84R
Worcester      CLOUDY    60  47  61 W5        29.85R
Westfield      LGT RAIN  60  56  86 CALM      29.82S
Provincetown   CLOUDY    53  52  96 SW6       29.85S
Nantucket      CLOUDY    51  49  92 SW8       29.86R FOG
$$

ANZ330-335-338-340-345-350-353-355-240200-
COASTAL MARINE OBSERVATIONS


STATION/POSITION TIME  SKY/WX   TEMP    WIND        PRES    VSBY  WAVE
                                AIR SEA DIR/SP/G                  HT/PER
                 (UTC)          (F)     (DEG/KT/KT) (MB)    (MI)  (FT/S)
NY HARB ENTRANCE 2350            59 59  210/  2/  4 1010.4          3/ 7
20 S FIRE ISLAND 0050            57 56     CALM     1009.9          3/ 8
GREAT SOUTH BAY  0030            61 65  230/  4/  8   N/A
23 SSW MONTAUK P 2350            56 56              1010.8          4/ 8
15 E BARNEGAT LI 0030               58                N/A           3/ 7
HUDSON CANYON    2350            55 55   70/  6/  8 1009.9          4/ 7
KINGS POINT      0030            63 57  190/  4/  6 1009.9
EXECUTION ROCKS  0045            61                   N/A
CENTRAL LI SOUND 0015            60     230/  2/  4   N/A           0
EASTERN LI SOUND NOT AVBL
ROBBINS REEF     0030            61     160/ 11/ 12 1010.5
$$


>>>>>>>>>>>>>>>>>>>>>>>>>>>> KEY <<<<<<<<<<<<<<<<<<<<<<<<<<<
>                                                          <
>     SKY/WX - Sky Condition/Present Weather               <
>     TMP    - Temperature in Fahrenheit                   <
>     DP     - Dew Point in Fahrenheit                     <
>     RH     - Relative Humidity in Percent                <
>     WIND   - Direction (from) and Speed in MPH           <
>     PRES   - Mean Sea Level Pressure (inches of Hg)      <
>     WCI    - Wind Chill Index                            <
>     VSB    - VISIBILITY IN MILES                         <
>     HX     - HEAT INDEX                                  <
>     TC     - TEMPERATURE IN CELSIUS                      <
>     VRB    - VARIABLE WIND DIRECTION                     <
>                                                          <
>>>>>>>>>>>>>>>>>>>>>>>>>>>> KEY <<<<<<<<<<<<<<<<<<<<<<<<<<<




USA.gov is the U.S. government's official web portal to all federal, state and local government web resources and services.